User: anonymous   Login
Location: Vancouver
(49.2500°N, 123.1330°W)
Time: 19:21:45
(UTC-08:00)
Language:

AO-27 - Orbit

View from above orbital plane
View from above orbital plane
View from above satellite
View from above satellite

Ground track
Ground track

The orbit data is extracted from the following two-line orbital elements,

1 22825U 93061C   16039.84610361  .00000073  00000-0  45733-4 0  9992
2 22825  98.7426 355.4143 0008118 343.8001  16.2920 14.29936522166757
Epoch (UTC): 08 February 2016 20:18:23
Eccentricity: 0.0008118
inclination: 98.7426°
perigee height: 786 km
apogee height: 798 km
right ascension of ascending node: 355.4143°
argument of perigee: 343.8001°
revolutions per day: 14.29936522
mean anomaly at epoch: 16.2920°
orbit number at epoch: 16675

The dashed part of the orbit path shows where the satellite is in the earth's shadow,  

DLR